User: anonymous   Login
Location: Unspecified
(0.0000°N, 0.0000°E)
Time: 16:30:11
(UTC+00:00)
Language:

GLOBAL-2 - Orbit

View from above orbital plane
View from above orbital plane
View from above satellite
View from above satellite

Ground track
Ground track

The orbit data is extracted from the following two-line orbital elements,

1 43812U 18099BG  21333.80891841  .00001024  00000-0  96522-4 0  9991
2 43812  97.6452  40.6722 0012673 212.5097 147.5345 14.95877866162806
Epoch (UTC): 29 November 2021 19:24:50
Eccentricity: 0.0012673
inclination: 97.6452°
perigee height: 571 km
apogee height: 588 km
right ascension of ascending node: 40.6722°
argument of perigee: 212.5097°
revolutions per day: 14.95877866
mean anomaly at epoch: 147.5345°
orbit number at epoch: 16280

The dashed part of the orbit path shows where the satellite is in the earth's shadow,  

DLR